Location: Baia Mare
(47.6567°N, 23.5850°E)
Time: 21:31:00
(UTC+03:00)

Envisat - Pass Details

Date: 22 January 2022
Orbit: 764 x 765 km, 98.2° (Epoch: 19 May)

Event Time Altitude Azimuth Distance (km) Brightness Sun altitude
Rises 07:04:18 0° 0° (N) 3,242 6.1 -10.0°
Reaches altitude 10° 07:07:24 10° 340° (NNW) 2,311 5.1 -9.5°
Maximum altitude 07:10:29 16° 303° (WNW) 1,895 4.4 -9.0°
Drops below altitude 10° 07:13:34 10° 265° (W) 2,303 4.9 -8.5°
Sets 07:16:39 0° 245° (WSW) 3,225 5.8 -8.1°
